This demonstration page uses our WeatherBlox Daily Observations layout. Learn more.

Left ArrowRight Arrow

39.51506, -84.39828

Hourly Observations for March 9, 2016

Temp ( °F °C ) Dew Point ( °F °C ) Humidity (%) Winds ( mph kmh ) Pressure ( in mb ) Visibility ( mi km ) Precip ( " mm )
12:15 am 00:15 Clear 49 9.6 42 5.6 76 76 Calm 30.06 1018 10 16 0.00 0.00
12:35 am 00:35 Clear 49 9.6 43 5.9 78 78 Calm 30.06 1018 10 16 0.00 0.00
12:55 am 00:55 Clear 49 9.6 43 6 78 78 Calm 30.06 1018 10 16 0.00 0.00
1:15 am 01:15 Clear 48 8.7 42 5.5 81 81 Calm 30.06 1018 10 16 0.00 0.00
1:35 am 01:35 Clear 47 8.4 42 5.3 81 81 Calm 30.06 1018 10 16 0.00 0.00
1:55 am 01:55 Clear 49 9.6 43 6.1 79 79 Calm 30.06 1018 10 16 0.00 0.00
2:15 am 02:15 Clear 49 9.6 43 6.2 80 80 Calm 30.06 1018 10 16 0.00 0.00
2:35 am 02:35 Clear 49 9.6 43 6 78 78 Calm 30.06 1018 10 16 0.00 0.00
2:55 am 02:55 Clear 48 8.8 41 5.1 78 78 Calm 30.06 1018 10 16 0.00 0.00
3:15 am 03:15 Clear 49 9.6 44 6.8 83 83 Calm 30.06 1018 10 16 0.00 0.00
3:35 am 03:35 Clear 49 9.6 44 6.6 82 82 Calm 30.06 1018 10 16 0.00 0.00
3:55 am 03:55 Clear 48 9.1 43 6.3 83 83 Calm 30.06 1018 10 16 0.00 0.00
4:15 am 04:15 Clear 49 9.6 44 6.9 83 83 Calm 30.06 1018 10 16 0.00 0.00
4:35 am 04:35 Clear 49 9.6 44 6.6 82 82 WSW 3 6 30.06 1018 10 16 0.00 0.00
4:55 am 04:55 Clear 52 10.9 44 6.8 76 76 SW 5 7 30.06 1018 10 16 0.00 0.00
5:15 am 05:15 Clear 55 12.5 45 7.2 70 70 SW 5 7 30.06 1018 10 16 0.00 0.00
5:35 am 05:35 Clear 55 12.6 44 6.7 68 68 SW 5 7 30.06 1018 10 16 0.00 0.00
5:55 am 05:55 Clear 55 12.5 44 6.8 68 68 Calm 30.06 1018 10 16 0.00 0.00
6:15 am 06:15 Clear 55 12.7 45 7.2 69 69 Calm 30.03 1017 10 16 0.00 0.00
6:35 am 06:35 Clear 55 13 45 7.4 69 69 Calm 30.06 1018 10 16 0.00 0.00
6:55 am 06:55 Clear 55 12.6 45 7 69 69 SW 3 6 30.06 1018 10 16 0.00 0.00
7:15 am 07:15 Sunny 55 12.5 45 7.4 71 71 Calm 30.06 1018 10 16 0.00 0.00
7:35 am 07:35 Sunny 60 15.3 48 8.7 65 65 S 6 9 30.06 1018 10 16 0.00 0.00
7:55 am 07:55 Sunny 60 15.3 47 8.2 63 63 S 7 11 30.06 1018 10 16 0.00 0.00
8:15 am 08:15 Sunny 61 16 46 8 59 59 S 9 15 30.03 1017 10 16 0.00 0.00
8:35 am 08:35 Sunny 62 16.6 47 8.1 57 57 S 10 17 30.03 1017 10 16 0.00 0.00
8:55 am 08:55 Sunny 62 16.6 47 8.1 57 57 SSW 10 17 30.03 1017 10 16 0.00 0.00
9:15 am 09:15 Sunny 62 16.7 47 8.1 57 57 SSW 9 15 30.06 1018 10 16 0.00 0.00
9:35 am 09:35 Sunny 64 18 47 8.6 54 54 SSW 10 17 30.06 1018 10 16 0.00 0.00
9:55 am 09:55 Sunny 64 18 47 8.6 54 54 SSW 8 13 30.06 1018 10 16 0.00 0.00
10:15 am 10:15 Sunny 67 19.5 49 9.5 53 53 S 9 15 30.06 1018 10 16 0.00 0.00
10:35 am 10:35 Partly Cloudy 69 20.3 50 10.1 52 52 SSW 13 20 30.06 1018 10 16 0.00 0.00
10:55 am 10:55 Partly Cloudy 69 20.8 48 9 47 47 SW 18 30 30.06 1018 10 16 0.00 0.00
11:15 am 11:15 Sunny 69 20.8 47 8.5 45 45 SW 21 33 30.06 1018 10 16 0.00 0.00
11:35 am 11:35 Sunny 74 23.2 50 10.1 44 44 SW 21 33 30.03 1017 10 16 0.00 0.00
11:55 am 11:55 Partly Cloudy 74 23.6 49 9.7 41 41 SW 20 31 30.03 1017 10 16 0.00 0.00
12:15 pm 12:15 Partly Cloudy 74 23.6 49 9.4 41 41 SW 25 41 30.03 1017 10 16 0.00 0.00
12:35 pm 12:35 Partly Cloudy 74 23.6 49 9.2 40 40 SW 23 37 30.00 1016 10 16 0.00 0.00
12:55 pm 12:55 Partly Cloudy 74 23.6 48 8.8 39 39 WSW 21 33 30.00 1016 10 16 0.00 0.00
1:15 pm 13:15 Partly Cloudy 74 23.6 49 9.2 40 40 SW 22 35 30.00 1016 10 16 0.00 0.00
1:35 pm 13:35 Partly Cloudy 74 23.6 49 9.5 41 41 SW 20 31 30.00 1016 10 16 0.00 0.00
1:55 pm 13:55 Mostly Cloudy 74 23.6 50 9.8 42 42 SW 17 28 30.00 1016 10 16 0.00 0.00
2:15 pm 14:15 Cloudy 71 21.6 48 9.1 45 45 SW 17 28 30.00 1016 10 16 0.00 0.00
2:35 pm 14:35 Cloudy with Drizzle 69 20.8 51 10.5 52 52 SW 14 22 30.03 1017 10 16 0.00 0.00
2:55 pm 14:55 Cloudy with Drizzle 69 20.8 53 11.8 57 57 SW 13 20 30.03 1017 10 16 0.00 0.00
3:15 pm 15:15 Cloudy with Rain 69 20.8 55 12.8 60 60 SW 9 15 30.03 1017 10 16 0.00 0.00
3:35 pm 15:35 Cloudy 69 20.8 56 13.1 62 62 SW 9 15 30.03 1017 10 16 0.00 0.00
3:55 pm 15:55 Cloudy with Drizzle 69 20.8 56 13.3 62 62 WSW 5 7 30.03 1017 10 16 0.00 0.00
4:15 pm 16:15 Cloudy with Light Rain 66 19.1 55 12.8 67 67 WSW 6 9 30.03 1017 10 16 0.00 0.00
4:35 pm 16:35 Cloudy with Light Rain 63 17 55 12.8 76 76 W 6 9 30.03 1017 7 11 0.00 0.00
4:55 pm 16:55 Cloudy with Rain 61 16 55 12.6 80 80 SW 8 13 30.03 1017 5 8 0.00 0.00
5:15 pm 17:15 Cloudy with Rain 61 16 56 13.3 84 84 SW 6 9 30.03 1017 7 11 0.00 0.00
5:35 pm 17:35 Cloudy with Rain 60 15.3 55 13 86 86 SW 8 13 30.06 1018 5 8 0.00 0.00
5:55 pm 17:55 Cloudy with Light Rain 60 15.3 55 13 86 86 SSW 6 9 30.06 1018 5 8 0.00 0.00
6:15 pm 18:15 Cloudy with Rain 60 15.3 56 13.1 87 87 S 6 9 30.06 1018 5 8 0.00 0.00
6:35 pm 18:35 Cloudy with Light Rain 60 15.3 56 13.2 87 87 SSW 6 9 30.06 1018 5 8 0.00 0.00
6:55 pm 18:55 Cloudy with Light Rain 60 15.3 56 13.2 87 87 Calm 30.06 1018 7 11 0.00 0.00
7:15 pm 19:15 Cloudy with Rain 60 15.3 56 13.3 88 88 Calm 30.06 1018 4 6 0.00 0.00
7:35 pm 19:35 Cloudy with Drizzle 59 15 56 13.2 89 89 N 3 6 30.06 1018 2 3 0.00 0.00
7:55 pm 19:55 Cloudy with Mist and Fog 59 15.2 56 13.4 89 89 Calm 30.06 1018 3 5 0.00 0.00
8:15 pm 20:15 Cloudy with Rain 58 14.7 55 12.9 89 89 Calm 30.06 1018 2 3 0.00 0.00
8:35 pm 20:35 Mostly Cloudy with Mist and Fog 60 15.3 56 13.6 90 90 Calm 30.06 1018 2 3 0.00 0.00
8:55 pm 20:55 Cloudy with Rain 57 13.8 54 12.1 90 90 Calm 30.06 1018 1 1 0.00 0.00
9:15 pm 21:15 Mostly Cloudy with Rain 57 13.8 54 12.1 90 90 Calm 30.06 1018 1 1 0.00 0.00
9:35 pm 21:35 Mostly Cloudy with Drizzle 57 13.8 54 12.1 90 90 Calm 30.06 1018 0 0 0.00 0.00
9:55 pm 21:55 Mostly Cloudy with Drizzle 57 13.8 54 12.2 90 90 Calm 30.06 1018 0 0 0.00 0.00
10:15 pm 22:15 Cloudy with Light Rain 57 13.8 54 12.2 90 90 Calm 30.06 1018 1 1 0.00 0.00
10:35 pm 22:35 Cloudy with Drizzle 57 13.8 54 12.2 90 90 Calm 30.06 1018 1 1 0.00 0.00
10:55 pm 22:55 Cloudy with Rain 57 13.8 54 12.2 90 90 Calm 30.06 1018 1 1 0.00 0.00
11:15 pm 23:15 Cloudy with Drizzle 57 13.8 54 12.4 91 91 Calm 30.06 1018 1 1 0.00 0.00
11:35 pm 23:35 Cloudy with Light Rain 57 13.8 55 12.5 92 92 Calm 30.06 1018 1 1 0.00 0.00
11:55 pm 23:55 Cloudy with Light Rain 57 13.8 55 12.5 92 92 Calm 30.06 1018 1 1 0.00 0.00

Powered by AerisWeather